{"data":{"norad_id":44312,"intl_designator":"2019-032C","name":"JILIN-1 GAOFEN 3A","alt_names":[],"object_type":"PAYLOAD","status":"ACTIVE","operator":null,"country":"PRC","launch_date":"2019-06-05","launch_site_code":"YSLA","launch_vehicle":null,"mission":null,"orbit_class":"UNKNOWN","rcs_meters":null,"size_class":null,"mass_kg":null,"dimensions":null,"purposes":[],"wikipedia_slug":null,"has_3d_model":false,"image_url":null,"decayed_at":null,"tle_current":{"epoch":"2026-09-20T04:29:46.984704Z","epoch_age_seconds":85479,"freshness":"FRESH","line1":"1 44312U 19032C   26263.18734936  .00008514  00000+0  25895-3 0  9998","line2":"2 44312  44.9738 193.3422 0006357 150.2311 209.8936 15.34470835402428","mean_motion":15.34470835,"eccentricity":0.0006357,"inclination_deg":44.9738,"raan_deg":193.3422,"arg_perigee_deg":150.2311,"mean_anomaly_deg":209.8936,"bstar":0.00025895,"rev_number":40242,"period_min":93.843425834809,"perigee_km":458.14412345066,"apogee_km":466.84130006619,"semimajor_km":6840.6297117584,"source":"CELESTRAK","updated_at":"2026-09-20T09:00:14.457777Z"}}}